This is the latest recevied weather packets stored in our database for station/object OE3MHU-13. If no packets are shown the sender has not sent any weather packets the latest 10 day(s).
| Time | Temp. | Humidity | Pressure | Rain* | Wind** | Luminosity | Snow |
|---|---|---|---|---|---|---|---|
| 1778255103 | 23.33° C | 42% | 1017 hPa | 0 mm | - | - | - |
| 1778254797 | 23.33° C | 41% | 1017 hPa | 0 mm | - | - | - |
| 1778254491 | 23.33° C | 40% | 1017 hPa | 0 mm | - | - | - |
| 1778254185 | 23.33° C | 40% | 1016.9 hPa | 0 mm | - | - | - |
| 1778253878 | 23.89° C | 40% | 1017 hPa | 0 mm | - | - | - |
| 1778253719 | 23.89° C | 39% | 1016.9 hPa | 0 mm | - | - | - |
| 1778253268 | 23.89° C | 39% | 1017.1 hPa | 0 mm | - | - | - |
| 1778252961 | 23.89° C | 39% | 1017.1 hPa | 0 mm | - | - | - |
| 1778252655 | 23.33° C | 41% | 1017.2 hPa | 0 mm | - | - | - |
| 1778252349 | 23.89° C | 40% | 1017.2 hPa | 0 mm | - | - | - |
| 1778252043 | 23.89° C | 40% | 1017.3 hPa | 0 mm | - | - | - |
| 1778251737 | 23.89° C | 40% | 1017.2 hPa | 0 mm | - | - | - |
| 1778251431 | 24.44° C | 40% | 1017.2 hPa | 0 mm | - | - | - |
| 1778251125 | 23.89° C | 40% | 1017.3 hPa | 0 mm | - | - | - |
| 1778250819 | 23.89° C | 39% | 1017.3 hPa | 0 mm | - | - | - |
| 1778250513 | 24.44° C | 40% | 1017.4 hPa | 0 mm | - | - | - |
| 1778250207 | 23.89° C | 39% | 1017.3 hPa | 0 mm | - | - | - |
| 1778249902 | 23.89° C | 41% | 1017.4 hPa | 0 mm | - | - | - |
| 1778249596 | 24.44° C | 40% | 1017.4 hPa | 0 mm | - | - | - |
| 1778249289 | 24.44° C | 40% | 1017.4 hPa | 0 mm | - | - | - |
| 1778248983 | 24.44° C | 41% | 1017.3 hPa | 0 mm | - | - | - |
| 1778248677 | 24.44° C | 40% | 1017.3 hPa | 0 mm | - | - | - |
| 1778248377 | 24.44° C | 40% | 1017.4 hPa | 0 mm | - | - | - |
| 1778248075 | 24.44° C | 40% | 1017.5 hPa | 0 mm | - | - | - |
| 1778247774 | 23.33° C | 42% | 1017.4 hPa | 0 mm | - | - | - |
* Rain latest hour (hover to see other rain measurements)
** Current wind speed in m/s (hover to see current wind gust speed)